Erie, PA

3:37 PM EST on January 24, 2017 (GMT -0500)
Erie International

Weather History for KERI - March, 2014

Change the Weather History Date:

Wednesday, March 26, 2014

  Actual Average Record
Temperature  
Mean Temperature 17 °F 39 °F  
Max Temperature 21 °F 48 °F 81 °F (1945)
Min Temperature 12 °F 31 °F 12 °F (2014)
Degree Days  
Heating Degree Days 48 26  
Month to date heating degree days 992 788  
Since 1 July heating degree days 5813 5153  
Cooling Degree Days 0 0  
Month to date cooling degree days 0 0  
Year to date cooling degree days 0 0  
Moisture  
Dew Point 8 °F    
Average Humidity 63    
Maximum Humidity 73    
Minimum Humidity 52    
Precipitation  
Precipitation T in 0.10 in 0.76 in (1939)
Month to date precipitation 1.92 2.43  
Year to date precipitation 7.83 7.77  
Snow  
Snow T in 0.30 in - ()
Month to date snowfall 13.5 12.2  
Since 1 July snowfall 133.1 96.2  
Snow Depth 2.00 in    
Sea Level Pressure  
Sea Level Pressure 30.24 in    
Wind  
Wind Speed 7 mph (NW)    
Max Wind Speed 17 mph    
Max Gust Speed 23 mph    
Visibility 9 miles    
Events Fog , Snow    
T = Trace of Precipitation, MM = Missing Value Source: NWS Daily Summary

Daily Weather History Graph

Daily Weather History Graph

Search for Another Location

Airport or City:

Trip Planner

Search our weather history database for the weather conditions in past years. The results will help you decide how hot, cold, wet, or windy it might be!

Date:

Astronomy

Mar. 26, 2014 Rise Set
Actual Time 7:13 AM EDT 7:39 PM EDT
Civil Twilight 6:45 AM EDT 8:07 PM EDT
Nautical Twilight 6:12 AM EDT 8:40 PM EDT
Astronomical Twilight 5:38 AM EDT 9:14 PM EDT
Moon 4:25 AM EDT (3/26) 3:12 PM EDT (3/26)
Length of Visible Light 13h 22m
Length of Day
12h 26m
Waning Crescent, 22% of the Moon is Illuminated
Mar 26
Waning Crescent
Mar 30
New
Apr 7
First Quarter
Apr 15
Full
Apr 22
Last Quarter

Hourly Weather History & Observations

Time (EDT) Temp. Windchill Dew Point Humidity Pressure Visibility Wind Dir Wind Speed Gust Speed Precip Events Conditions
12:05 AM 23.0 °F 11.7 °F 19.4 °F 86% 30.03 in 1.8 mi NNW 11.5 mph - 0.00 in Snow Light Snow
12:13 AM 21.2 °F 9.5 °F 19.4 °F 93% 30.03 in 0.5 mi NNW 11.5 mph 20.7 mph 0.00 in Fog , Snow Snow
12:27 AM 19.4 °F 6.6 °F 17.6 °F 93% 30.05 in 0.8 mi North 12.7 mph 21.9 mph 0.00 in Snow Light Snow
12:37 AM 19.4 °F 6.6 °F 15.8 °F 86% 30.05 in 2.0 mi North 12.7 mph 19.6 mph 0.00 in Snow Light Snow
12:43 AM 19.4 °F 7.2 °F 12.2 °F 74% 30.06 in 6.0 mi North 11.5 mph 19.6 mph 0.00 in Snow Light Snow
12:51 AM 19.9 °F 6.2 °F 12.0 °F 71% 30.09 in 9.0 mi North 15.0 mph 20.7 mph 0.00 in   Overcast
1:04 AM 19.4 °F 7.2 °F 14.0 °F 80% 30.07 in 8.0 mi North 11.5 mph 23.0 mph N/A   Overcast
1:25 AM 19.4 °F 7.2 °F 14.0 °F 80% 30.08 in 3.0 mi North 11.5 mph 20.7 mph 0.00 in Snow Light Snow
1:51 AM 19.0 °F 8.2 °F 12.0 °F 74% 30.12 in 7.0 mi North 9.2 mph - 0.00 in Snow Light Snow
1:59 AM 19.4 °F 7.2 °F 10.4 °F 68% 30.09 in 10.0 mi North 11.5 mph - N/A   Overcast
2:11 AM 19.4 °F 7.2 °F 10.4 °F 68% 30.10 in 10.0 mi North 11.5 mph 17.3 mph N/A   Overcast
2:27 AM 19.4 °F 8.6 °F 8.6 °F 63% 30.11 in 10.0 mi North 9.2 mph - N/A   Overcast
2:51 AM 18.0 °F 6.1 °F 7.0 °F 62% 30.16 in 10.0 mi North 10.4 mph - N/A   Overcast
3:51 AM 16.0 °F 3.6 °F 3.9 °F 59% 30.18 in 10.0 mi NNW 10.4 mph - N/A   Overcast
4:51 AM 14.0 °F 3.9 °F 3.0 °F 62% 30.19 in 10.0 mi NNW 6.9 mph - N/A   Partly Cloudy
5:51 AM 14.0 °F 5.1 °F 1.9 °F 59% 30.22 in 10.0 mi NNW 5.8 mph - N/A   Clear
6:51 AM 12.0 °F 5.9 °F 3.9 °F 70% 30.25 in 10.0 mi NW 3.5 mph - N/A   Clear
7:51 AM 12.0 °F 2.7 °F 3.9 °F 70% 30.28 in 10.0 mi WNW 5.8 mph - N/A   Clear
8:51 AM 14.0 °F 3.9 °F 3.9 °F 64% 30.30 in 10.0 mi NW 6.9 mph - N/A   Clear
9:51 AM 15.1 °F 6.4 °F 3.9 °F 61% 30.33 in 10.0 mi NW 5.8 mph - N/A   Clear
10:51 AM 17.1 °F 6.6 °F 7.0 °F 65% 30.35 in 10.0 mi NW 8.1 mph - N/A   Clear
11:19 AM 15.8 °F 6.1 °F 6.8 °F 68% 30.31 in 10.0 mi NW 6.9 mph - N/A   Mostly Cloudy
11:51 AM 18.0 °F 6.1 °F 6.1 °F 60% 30.35 in 10.0 mi West 10.4 mph - N/A   Mostly Cloudy
12:02 PM 19.4 °F 7.2 °F 6.8 °F 58% 30.31 in 10.0 mi WNW 11.5 mph - N/A   Overcast
12:51 PM 19.9 °F 7.9 °F 8.1 °F 60% 30.36 in 10.0 mi WNW 11.5 mph 17.3 mph N/A   Overcast
1:27 PM 19.4 °F 7.9 °F 6.8 °F 58% 30.32 in 10.0 mi WNW 10.4 mph - N/A   Overcast
1:42 PM 19.4 °F 6.6 °F 6.8 °F 58% 30.31 in 10.0 mi WNW 12.7 mph - N/A   Overcast
1:51 PM 19.0 °F 6.1 °F 6.1 °F 57% 30.35 in 10.0 mi WNW 12.7 mph - N/A   Mostly Cloudy
2:51 PM 19.9 °F 6.2 °F 6.1 °F 55% 30.35 in 10.0 mi West 15.0 mph 19.6 mph 0.00 in   Overcast
3:51 PM 19.9 °F 8.6 °F 7.0 °F 57% 30.35 in 10.0 mi West 10.4 mph 19.6 mph N/A   Overcast
4:28 PM 19.4 °F 7.2 °F 6.8 °F 58% 30.30 in 10.0 mi West 11.5 mph 17.3 mph N/A   Mostly Cloudy
4:35 PM 21.2 °F 10.1 °F 6.8 °F 54% 30.30 in 10.0 mi WNW 10.4 mph 17.3 mph N/A   Mostly Cloudy
4:51 PM 21.0 °F 9.9 °F 6.1 °F 53% 30.34 in 10.0 mi West 10.4 mph 17.3 mph N/A   Partly Cloudy
5:51 PM 21.0 °F 10.6 °F 6.1 °F 53% 30.33 in 10.0 mi West 9.2 mph - N/A   Clear
6:51 PM 19.9 °F 11.1 °F 7.0 °F 57% 30.34 in 10.0 mi West 6.9 mph - N/A   Clear
7:51 PM 19.0 °F - 7.0 °F 59% 30.34 in 10.0 mi Calm Calm - N/A   Clear
8:51 PM 18.0 °F 12.7 °F 9.0 °F 68% 30.34 in 10.0 mi SSE 3.5 mph - N/A   Clear
9:51 PM 17.1 °F - 8.1 °F 68% 30.34 in 10.0 mi Calm Calm - N/A   Clear
10:51 PM 15.1 °F 7.7 °F 7.0 °F 70% 30.34 in 10.0 mi South 4.6 mph - N/A   Clear
11:51 PM 15.1 °F 9.4 °F 6.1 °F 68% 30.33 in 10.0 mi Variable 3.5 mph - N/A   Clear